Starlink 30989

operational
NORAD ID: 58510 Int'l Des: 2023-191 Owner: SPXS Country: US Constellation: starlink
LEOCIRCULAR

关于 Starlink 30989

正在加载描述...

实时位置

正在加载3D地球...

即将过境

高度历史

Altitude vs Time

uPlot chart will show altitude changes over time

两行轨道根数

1 58510U 23191C 25303.30463690 -.00001089 00000-0 -65575-4 0 9991
2 58510 43.0036 94.8331 0001389 266.0239 94.0444 15.02532248105850
Epoch: Oct 30, 2025 • Age: 15 hours

当前状态

高度 560.5 km
速度 7.59 km/s
星下点 30.80°N, 123.26°E
发射日期 Dec 7, 2023
运行时间 1.8 years
类型 internet

技术详情

分类 Payload
质量 730.00 kg
干质量 700.00 kg
总质量 730.00 kg
长度 0.30 m
直径 4.10 m
跨度 29.00 m
形状 Box + pan
制造商 SPXS
平台类型 Starlink V2M
阶段状态 In Orbit
所有者/国家 SPXS/US

大型星座

Loading constellations...